Location: Poughquag
(41.6090°N, 73.6820°W)
Time: 12:11:07
(UTC-04:00)

A-11 Canister half - Pass Details

Date: 01 June 2020
Orbit: 1527 x 1682 km, 47.3° (Epoch: 06 July)

Event Time Altitude Azimuth Distance (km) Brightness Sun altitude
Rises 10:10:26 0° 271° (W) 4,678 11.2 50.9°
Reaches altitude 10° 10:13:31 10° 275° (W) 3,703 10.8 51.5°
Maximum altitude 10:22:47 63° 356° (N) 1,710 9.9 53.1°
Drops below altitude 10° 10:32:18 10° 77° (ENE) 3,798 11.7 54.8°
Sets 10:35:31 0° 81° (E) 4,805 12.0 55.3°
